Dewpoint
2 2 2 -0 -8 -7 -5 -7 -7 -8 -9 -9 -9 -10 -11 -12 -13 -13 -14 -14 -14 -14 -14 -15 -14 -15 -15 -15 -15 -15 -16 -16 -16 -16 -16 -16 -16 -15 -15 -15 -15 -15 -15 -15 -15 -15 -15 -15 -15 -15 -15 -15
2 2 2 -2 -7 -5 -6 -7 -7 -9 -10 -10 -10 -11 -12 -12 -13 -13 -13 -13 -14 -14 -14 -14 -14 -15 -15 -15 -16 -15 -16 -16 -16 -16 -16 -16 -15 -16 -15 -15 -15 -15 -15 -15 -15 -14 -15 -14 -15 -15 -14 -14
2 2 1 -3 -6 -5 -6 -6 -7 -9 -10 -11 -11 -11 -12 -12 -12 -12 -13 -13 -13 -14 -14 -14 -14 -15 -15 -15 -15 -15 -16 -15 -16 -15 -15 -15 -15 -15 -15 -15 -14 -15 -14 -14 -14 -14 -14 -14 -15 -14 -13 -13
1 1 -1 -4 -5 -5 -6 -6 -7 -9 -10 -11 -11 -11 -11 -11 -12 -12 -13 -13 -13 -14 -14 -14 -14 -15 -15 -15 -15 -15 -15 -15 -15 -15 -14 -14 -14 -14 -14 -14 -14 -14 -14 -14 -14 -14 -14 -14 -14 -13 -13 -13
1 0 -2 -4 -4 -5 -5 -6 -7 -9 -10 -10 -10 -11 -11 -12 -12 -12 -13 -13 -14 -14 -14 -14 -14 -14 -14 -14 -14 -14 -14 -14 -14 -14 -14 -13 -13 -13 -13 -13 -13 -13 -13 -13 -13 -13 -14 -13 -13 -13 -13 -13
1 -1 -3 -3 -4 -5 -5 -7 -8 -9 -10 -10 -10 -11 -11 -12 -12 -13 -13 -13 -14 -14 -14 -14 -14 -13 -13 -13 -13 -13 -13 -13 -13 -13 -13 -13 -13 -13 -13 -13 -13 -13 -13 -13 -13 -13 -13 -13 -13 -13 -13 -12
-1 -3 -3 -3 -4 -5 -5 -7 -8 -9 -10 -10 -10 -11 -12 -12 -13 -13 -13 -13 -13 -13 -13 -13 -13 -13 -13 -13 -14 -14 -14 -15 -15 -15 -15 -15 -15 -15 -14 -14 -14 -14 -14 -13 -13 -13 -13 -13 -13 -13 -13 -12
-2 -3 -3 -4 -4 -5 -6 -7 -9 -9 -9 -10 -10 -11 -12 -12 -13 -13 -13 -13 -13 -13 -13 -13 -14 -15 -16 -16 -17 -17 -17 -18 -18 -19 -19 -19 -19 -19 -19 -18 -18 -18 -17 -17 -16 -16 -15 -15 -14 -14 -13 -13
-3 -3 -3 -4 -5 -5 -7 -8 -9 -9 -10 -10 -10 -11 -12 -13 -13 -13 -13 -12 -12 -13 -14 -15 -16 -17 -17 -17 -17 -17 -18 -19 -19 -20 -21 -22 -23 -23 -23 -23 -23 -22 -22 -22 -21 -20 -20 -19 -18 -17 -16 -16
-2 -2 -3 -4 -5 -6 -7 -8 -9 -9 -10 -10 -11 -12 -13 -13 -13 -12 -12 -13 -14 -15 -16 -17 -17 -17 -16 -16 -17 -17 -19 -20 -22 -24 -24 -25 -25 -26 -25 -25 -26 -26 -26 -25 -25 -25 -25 -24 -23 -22 -21 -20
-1 -2 -3 -5 -5 -6 -8 -9 -9 -9 -10 -10 -11 -12 -13 -12 -12 -12 -13 -14 -16 -16 -17 -16 -16 -16 -16 -17 -19 -20 -22 -24 -25 -25 -26 -26 -26 -26 -26 -26 -26 -26 -26 -26 -27 -27 -26 -27 -26 -26 -26 -25
-1 -2 -4 -5 -6 -7 -9 -9 -9 -10 -10 -11 -12 -12 -12 -12 -11 -12 -14 -15 -16 -16 -16 -15 -15 -16 -18 -20 -23 -24 -25 -25 -25 -25 -26 -25 -26 -26 -26 -26 -26 -26 -27 -26 -27 -26 -27 -27 -27 -27 -27 -28
-2 -3 -5 -6 -7 -8 -9 -9 -10 -10 -10 -11 -12 -12 -12 -11 -12 -13 -15 -16 -16 -15 -15 -15 -17 -19 -22 -24 -25 -25 -25 -25 -25 -25 -26 -25 -26 -26 -26 -26 -26 -26 -26 -26 -27 -26 -27 -26 -27 -27 -27 -27
-3 -4 -5 -6 -8 -9 -9 -9 -9 -10 -11 -12 -12 -12 -11 -12 -13 -15 -16 -15 -15 -15 -15 -17 -20 -23 -25 -25 -25 -25 -25 -26 -26 -26 -26 -26 -26 -26 -26 -26 -26 -26 -26 -26 -27 -26 -27 -27 -27 -27 -27 -27
-4 -5 -6 -7 -9 -9 -9 -9 -10 -10 -11 -12 -12 -12 -12 -13 -14 -15 -15 -15 -15 -15 -18 -21 -24 -25 -25 -25 -25 -25 -25 -25 -26 -26 -26 -25 -26 -26 -26 -26 -26 -26 -26 -26 -27 -27 -27 -27 -27 -27 -27 -27
-5 -6 -7 -8 -9 -9 -9 -9 -10 -11 -12 -12 -12 -11 -12 -14 -15 -15 -15 -15 -16 -18 -21 -24 -24 -25 -25 -25 -25 -25 -25 -25 -25 -26 -26 -26 -26 -26 -26 -26 -26 -26 -26 -27 -27 -27 -27 -27 -27 -27 -28 -28
-6 -7 -8 -9 -9 -9 -9 -10 -10 -11 -12 -12 -11 -12 -13 -14 -15 -14 -14 -15 -18 -21 -23 -24 -24 -25 -25 -25 -25 -25 -25 -25 -26 -25 -26 -26 -26 -26 -26 -26 -26 -26 -27 -27 -27 -27 -28 -28 -27 -28 -28 -28
-7 -8 -9 -9 -9 -9 -9 -10 -11 -12 -12 -11 -12 -13 -14 -14 -14 -14 -15 -17 -20 -22 -23 -23 -24 -24 -25 -25 -25 -26 -26 -26 -26 -26 -26 -26 -26 -26 -26 -27 -27 -27 -27 -28 -28 -28 -27 -28 -28 -28 -29 -28
-8 -9 -9 -9 -9 -9 -10 -10 -12 -12 -11 -11 -12 -13 -14 -14 -14 -15 -17 -20 -22 -22 -23 -23 -23 -24 -25 -25 -25 -26 -26 -26 -26 -26 -26 -26 -26 -27 -27 -27 -27 -27 -27 -27 -27 -28 -28 -28 -29 -28 -28 -29
-9 -9 -10 -9 -9 -9 -10 -11 -12 -12 -11 -11 -12 -13 -14 -14 -14 -16 -19 -21 -22 -22 -22 -23 -23 -24 -24 -25 -25 -26 -26 -26 -26 -27 -27 -27 -27 -27 -27 -28 -28 -28 -28 -28 -28 -28 -28 -28 -29 -29 -28 -29
-9 -9 -9 -9 -9 -10 -11 -11 -12 -11 -11 -12 -13 -13 -14 -14 -15 -18 -20 -21 -21 -22 -22 -22 -22 -23 -23 -24 -25 -25 -26 -26 -27 -27 -27 -28 -28 -27 -28 -28 -28 -29 -28 -29 -29 -28 -28 -28 -28 -29 -28 -28
-9 -10 -9 -9 -9 -10 -11 -12 -12 -11 -11 -12 -13 -13 -14 -14 -16 -19 -21 -21 -21 -21 -21 -21 -21 -21 -22 -23 -24 -25 -25 -26 -26 -27 -28 -28 -28 -28 -28 -29 -29 -29 -29 -29 -29 -28 -28 -28 -28 -29 -29 -28
-9 -9 -9 -9 -10 -11 -11 -12 -12 -12 -12 -12 -13 -14 -14 -15 -17 -20 -20 -20 -20 -20 -20 -20 -20 -20 -20 -21 -22 -23 -24 -25 -26 -26 -28 -29 -29 -29 -29 -29 -29 -29 -29 -29 -29 -29 -28 -29 -29 -28 -28 -27
-10 -10 -9 -10 -10 -11 -12 -12 -12 -12 -12 -12 -13 -13 -14 -15 -18 -20 -20 -20 -19 -19 -19 -19 -19 -19 -19 -19 -19 -20 -22 -23 -25 -26 -27 -29 -30 -30 -30 -30 -30 -30 -30 -30 -30 -29 -30 -30 -29 -27 -26 -26
-10 -10 -10 -11 -12 -13 -13 -13 -12 -12 -12 -12 -13 -13 -14 -16 -19 -20 -20 -19 -18 -18 -17 -17 -17 -17 -17 -17 -17 -18 -18 -20 -22 -24 -26 -28 -30 -30 -31 -31 -31 -31 -31 -30 -31 -31 -31 -30 -27 -24 -23 -24
-10 -10 -11 -12 -12 -13 -13 -12 -12 -12 -12 -12 -13 -13 -14 -16 -19 -19 -19 -18 -17 -17 -16 -16 -16 -15 -15 -15 -15 -16 -16 -17 -19 -21 -23 -25 -28 -30 -31 -32 -32 -31 -31 -32 -32 -32 -30 -28 -28 -25 -23 -22
-11 -11 -12 -12 -12 -12 -12 -12 -12 -12 -12 -13 -13 -13 -14 -15 -18 -19 -18 -17 -17 -16 -16 -15 -15 -15 -14 -14 -14 -14 -14 -15 -16 -18 -21 -23 -25 -28 -30 -32 -32 -31 -32 -33 -33 -32 -29 -28 -29 -28 -26 -22
-11 -12 -12 -12 -12 -12 -12 -12 -12 -13 -13 -13 -13 -14 -14 -15 -18 -19 -18 -17 -16 -16 -15 -15 -15 -14 -14 -13 -13 -13 -13 -14 -15 -16 -18 -20 -22 -25 -28 -31 -32 -31 -32 -33 -33 -32 -29 -28 -28 -27 -26 -24
-12 -12 -12 -12 -12 -12 -12 -12 -13 -13 -13 -14 -15 -14 -14 -15 -17 -19 -18 -17 -16 -16 -15 -15 -14 -14 -13 -12 -12 -12 -12 -13 -14 -14 -16 -18 -20 -22 -25 -30 -32 -32 -32 -31 -33 -33 -31 -29 -27 -26 -27 -28
-14 -13 -12 -12 -13 -14 -14 -13 -13 -14 -15 -15 -15 -15 -15 -15 -16 -18 -18 -17 -16 -16 -15 -15 -14 -13 -12 -12 -11 -12 -12 -12 -12 -13 -15 -16 -18 -19 -22 -27 -31 -32 -32 -31 -31 -32 -32 -31 -29 -28 -29 -29
-16 -15 -13 -13 -14 -15 -15 -14 -14 -14 -14 -14 -14 -14 -14 -14 -14 -16 -17 -17 -17 -16 -15 -15 -14 -13 -12 -11 -10 -11 -11 -11 -11 -12 -14 -15 -16 -17 -19 -24 -30 -33 -33 -32 -31 -29 -29 -31 -32 -33 -33 -30
Wind_Speed
5 5 7 8 6 3 3 4 5 6 6 7 7 7 7 7 8 8 8 8 8 8 8 9 10 10 10 10 11 11 11 11 11 11 11 12 12 13 13 13 14 14 14 14 15 15 15 15 15 15 14 15
6 7 8 7 4 3 3 3 4 5 6 6 6 6 7 7 8 8 8 8 8 8 8 8 9 9 9 9 10 11 11 12 12 12 11 11 12 12 13 13 14 14 14 15 15 15 15 15 14 14 15 15
8 8 8 5 3 3 3 3 4 5 5 6 6 6 6 6 7 8 8 8 8 8 8 9 9 9 9 9 10 10 11 12 12 13 12 12 12 12 12 13 13 14 14 14 15 15 15 15 14 14 15 15
9 8 7 4 3 3 3 4 5 5 6 6 6 6 6 7 7 8 8 8 8 8 8 9 9 10 10 10 10 10 11 12 12 13 13 13 13 12 12 12 13 13 14 14 14 14 14 15 15 15 15 15
10 8 6 4 3 4 4 4 5 5 6 6 7 7 7 7 7 8 8 8 8 8 9 9 9 10 11 11 12 12 12 13 13 13 14 14 14 14 14 13 13 13 14 15 15 14 14 14 15 15 15 15
9 8 6 5 5 5 4 5 5 6 7 7 7 8 8 8 8 8 8 8 8 9 9 9 10 11 11 12 13 13 13 13 14 14 14 15 15 15 15 15 15 14 14 15 16 16 16 15 16 16 16 16
9 8 6 6 6 6 6 5 6 6 7 7 8 8 8 9 8 8 8 8 8 9 9 9 10 10 11 12 12 14 14 14 14 15 15 15 16 16 16 17 17 16 16 16 16 17 17 17 17 17 17 17
9 8 7 7 7 7 7 7 7 7 8 8 8 8 9 8 8 8 8 9 9 10 11 11 12 12 13 13 13 14 15 15 16 16 17 17 17 18 18 18 19 19 18 18 18 18 18 18 18 18 18 18
10 9 9 8 8 8 8 8 8 8 8 9 9 9 8 8 7 8 8 9 10 11 12 13 14 14 15 16 16 17 17 18 18 18 18 18 18 19 19 20 20 20 20 20 20 19 19 19 19 19 19 19
11 10 10 9 9 9 9 9 9 9 9 9 9 9 8 7 7 7 8 9 10 11 12 13 15 16 17 18 19 20 20 20 20 20 19 19 19 19 20 20 20 21 21 21 21 20 20 20 20 20 20 21
12 12 11 10 10 10 10 10 10 10 10 10 9 8 7 7 7 8 9 10 10 11 13 14 16 19 20 20 20 20 20 19 19 19 19 19 19 19 19 20 20 20 21 21 21 21 21 21 21 21 21 21
14 13 12 12 12 11 11 11 11 11 11 11 9 8 7 7 8 9 10 11 11 13 15 17 19 21 21 21 20 20 19 19 19 19 19 19 19 19 20 20 20 20 21 21 21 22 22 22 22 22 21 22
15 14 14 14 13 13 12 12 12 12 12 11 10 8 8 9 10 11 12 12 14 16 18 20 21 21 20 20 19 19 19 19 19 19 19 19 19 20 20 20 20 20 20 21 21 22 22 22 22 22 23 22
16 15 15 15 15 14 14 14 13 13 13 12 11 10 10 11 11 12 13 14 17 19 20 21 21 20 19 19 19 18 18 19 19 19 19 19 19 20 20 20 21 21 21 21 21 22 22 22 22 23 23 23
17 17 17 16 16 15 15 15 14 14 13 12 12 12 12 12 13 13 14 16 18 20 21 20 19 19 18 18 19 18 18 18 18 19 19 19 19 19 20 20 21 21 21 21 22 22 23 22 23 23 23 23
18 18 18 17 17 17 16 15 15 15 14 13 13 13 13 13 14 15 16 18 19 20 19 18 18 18 18 17 18 18 18 18 18 19 19 19 20 20 20 20 21 21 21 22 22 23 23 23 23 23 24 24
20 20 19 18 18 18 17 17 17 16 15 15 15 14 15 15 16 17 19 20 20 19 18 17 17 17 18 17 17 17 17 17 18 18 19 19 20 20 21 21 21 22 22 22 22 23 23 24 24 24 24 24
21 21 20 20 20 19 18 18 18 17 16 16 16 16 16 16 17 19 20 20 19 18 18 18 18 17 17 17 17 17 17 17 17 18 18 19 19 20 21 21 21 22 22 22 22 23 23 24 24 25 25 25
23 22 22 21 22 21 19 19 19 18 18 17 18 17 17 17 18 20 20 19 18 17 18 18 18 17 17 17 17 17 17 17 17 18 19 19 20 20 20 22 22 22 23 23 23 23 24 24 24 25 25 26
24 24 24 24 23 23 21 20 20 20 19 18 19 19 18 18 19 20 19 18 17 17 17 17 17 17 17 17 17 17 17 17 18 19 19 20 21 21 21 22 23 23 24 24 24 24 24 24 24 25 25 26
26 26 25 26 25 24 22 22 21 21 20 20 20 20 20 19 20 20 18 17 17 17 16 16 16 17 17 17 17 17 18 17 18 19 19 20 21 22 22 23 24 24 24 25 25 25 25 24 24 24 24 25
28 27 27 27 27 25 23 23 23 22 22 21 21 21 21 20 21 20 18 17 17 16 16 16 16 16 17 17 17 18 18 19 19 19 20 20 21 22 22 23 24 24 25 26 26 27 27 26 25 25 25 24
29 29 29 29 28 26 25 25 24 24 23 23 23 22 22 21 21 20 18 17 17 16 16 16 16 16 17 17 18 18 19 20 20 21 21 22 22 22 23 23 25 25 25 26 27 28 27 27 28 27 24 22
31 31 31 30 29 28 27 26 26 25 24 24 25 24 23 22 21 20 18 18 17 16 16 16 17 17 17 17 18 19 19 19 20 21 21 22 22 23 23 23 24 25 25 26 27 25 25 28 27 23 21 22
33 33 32 31 30 29 28 27 27 27 26 27 27 26 23 23 22 20 19 18 17 16 16 16 17 17 17 18 18 19 20 20 20 20 21 21 21 22 23 23 24 24 24 25 24 23 26 27 20 15 18 21
35 34 32 31 30 29 28 28 29 29 29 29 29 27 24 24 23 21 20 19 17 16 16 16 17 18 18 18 19 20 21 21 22 22 22 22 21 21 22 22 23 24 23 22 22 24 25 20 13 12 17 21
36 35 33 32 31 31 30 30 32 31 31 32 30 28 26 25 25 23 21 20 19 18 17 18 19 19 19 19 20 21 22 24 24 24 24 23 23 22 21 21 20 23 23 21 21 21 18 14 15 15 12 11
37 36 34 34 33 32 31 30 33 33 33 34 32 30 28 27 26 25 24 22 21 20 19 20 20 21 21 21 21 21 22 24 24 24 24 24 23 23 22 20 17 20 23 23 20 17 14 14 14 11 6 8
38 38 37 37 37 36 35 34 36 36 36 36 34 32 31 29 28 27 26 25 24 23 22 22 22 22 23 22 22 22 22 23 24 25 24 24 24 23 22 21 19 19 21 22 20 17 14 11 8 9 12 18
40 40 40 41 41 40 39 40 40 40 39 37 34 32 31 30 29 28 28 28 27 26 25 25 24 24 24 24 23 23 23 23 25 26 26 25 24 24 23 22 22 20 18 20 22 20 17 13 13 16 19 19
43 43 43 44 44 43 42 43 43 42 40 38 36 35 33 33 33 31 31 31 30 29 28 27 27 26 25 25 25 25 25 25 25 26 26 25 24 23 23 22 22 21 18 17 18 18 19 19 20 22 21 18
Wind_Direction
284 312 327 337 351 1 5 14 26 35 40 44 44 42 36 34 33 32 31 28 26 20 16 13 14 17 18 18 17 16 15 14 16 16 17 15 12 9 9 9 8 6 5 6 7 8 6 7 10 8 9 12
295 313 318 328 344 344 349 2 20 33 39 42 41 39 34 30 29 28 25 22 21 18 14 13 13 15 16 16 13 12 11 9 9 9 9 10 8 5 3 2 2 2 1 0 1 1 1 1 1 1 7 10
298 303 305 316 326 329 337 350 8 23 29 35 33 31 28 24 24 19 18 16 15 13 12 12 11 13 14 14 12 10 8 5 3 1 1 1 1 360 357 355 354 354 355 355 354 354 354 353 353 358 1 1
285 290 292 296 310 324 327 342 355 7 14 20 20 21 19 16 16 11 11 10 10 11 12 12 10 11 11 9 9 6 3 360 357 354 353 351 351 350 349 348 346 345 345 345 346 345 345 345 347 352 352 351
272 280 283 282 299 317 321 333 340 352 359 4 7 8 9 9 7 5 6 5 8 10 10 11 9 8 6 4 2 0 358 354 351 348 345 343 341 340 340 338 337 336 335 334 335 334 336 337 340 341 341 341
268 276 275 278 293 309 314 322 329 340 347 352 357 358 360 0 359 359 2 4 5 7 8 8 7 4 1 359 355 352 351 348 344 341 339 337 334 333 333 331 329 329 328 328 328 329 329 330 330 331 331 333
265 271 272 278 287 300 305 311 321 328 336 342 346 349 351 351 353 353 358 2 1 1 0 2 2 359 355 352 350 345 342 341 338 335 333 332 330 328 328 327 326 326 325 325 325 326 326 327 326 325 325 325
259 266 269 274 280 290 296 302 311 318 326 332 337 340 342 344 347 349 353 357 357 356 354 353 351 350 348 344 342 339 335 333 330 328 326 324 324 323 323 324 323 323 322 322 322 322 322 322 322 322 321 320
252 260 262 266 275 283 289 295 303 311 318 324 329 332 335 338 341 344 348 349 349 349 348 346 344 342 341 337 334 332 329 327 325 323 321 320 320 319 319 319 319 319 319 318 318 317 317 317 316 317 316 316
251 257 257 262 272 278 284 290 297 305 310 316 321 325 329 330 333 335 337 339 339 340 340 339 337 334 331 329 327 326 325 324 324 323 322 322 321 320 319 319 319 318 318 317 316 315 314 313 312 312 311 311
252 255 258 264 271 276 282 288 293 298 304 310 314 316 317 318 322 325 326 328 330 331 332 331 329 327 325 324 324 324 324 324 324 324 324 324 323 323 321 320 320 320 319 318 317 316 315 313 311 310 309 308
252 255 259 265 270 274 279 283 288 295 300 303 305 303 303 309 314 317 319 322 324 324 324 325 324 323 323 323 324 324 324 325 325 324 325 325 324 324 323 323 322 322 321 320 320 318 317 316 314 312 310 309
250 254 258 262 266 271 275 279 286 292 296 297 296 295 298 306 311 314 317 319 320 321 321 322 322 322 322 323 324 325 325 325 325 326 326 326 326 325 325 325 323 324 323 322 321 319 318 317 316 315 313 311
248 252 256 259 264 268 272 278 284 289 290 290 290 292 297 302 307 310 313 316 318 318 320 320 321 322 323 323 324 324 325 324 325 325 325 325 326 325 325 325 324 324 324 322 321 320 319 318 317 316 315 314
247 251 255 259 263 266 270 276 281 283 282 281 283 288 294 297 300 303 307 311 314 316 318 319 321 322 322 322 323 323 323 323 324 324 324 324 324 324 324 324 324 324 324 324 323 321 320 320 319 317 316 315
249 252 256 259 262 265 270 275 277 277 275 274 278 284 289 293 297 301 305 309 312 314 316 318 319 320 320 320 320 321 322 322 322 323 323 323 324 324 324 324 324 324 324 324 323 323 322 321 320 319 318 316
250 253 257 259 262 266 270 273 274 273 271 273 278 283 288 293 298 303 307 311 314 315 316 319 320 320 319 319 319 319 320 320 321 321 322 322 323 324 323 324 324 323 324 324 323 322 322 322 321 321 320 319
250 253 256 257 261 266 268 269 269 267 268 272 277 281 286 291 297 302 307 310 312 314 317 318 319 319 319 318 319 319 319 320 320 321 320 321 322 322 322 322 322 322 323 322 322 322 322 322 321 320 320 319
251 253 255 257 260 263 264 264 263 262 265 270 274 278 283 289 295 301 305 307 309 312 314 316 317 317 317 317 317 317 318 319 320 321 322 322 322 323 323 322 322 322 321 321 322 321 321 322 321 321 321 320
251 253 254 257 259 261 261 259 259 260 264 268 272 277 282 289 296 300 302 303 306 309 311 313 314 314 314 314 314 315 316 318 320 321 322 323 323 324 324 323 323 323 323 322 321 321 320 321 321 321 321 321
250 252 254 256 258 259 258 256 257 260 264 268 271 277 283 290 296 298 299 300 303 306 308 310 311 312 312 312 313 314 316 318 320 321 322 323 323 323 324 323 322 323 323 321 321 321 319 320 321 321 322 321
249 251 253 256 257 258 257 256 258 261 264 268 271 276 282 290 294 293 293 296 300 302 304 306 308 310 312 313 315 316 318 319 320 322 323 323 323 323 323 322 320 321 321 321 321 320 319 321 322 323 321 320
248 250 252 254 256 257 256 256 258 261 264 267 271 275 281 288 289 288 289 293 296 299 302 305 308 311 314 316 318 319 321 321 322 323 324 323 324 322 323 323 320 321 322 322 322 323 323 325 326 324 322 322
248 249 250 253 255 255 255 256 258 262 264 266 269 272 278 284 283 282 285 288 292 296 301 306 309 313 315 318 321 321 323 324 323 324 323 323 322 321 321 322 321 322 323 322 325 327 324 326 329 324 319 322
249 249 251 252 254 256 256 257 259 261 263 264 267 270 275 279 278 277 280 283 287 292 298 304 308 311 314 317 320 322 323 324 322 321 321 321 322 322 322 322 320 318 321 325 327 325 322 327 333 320 314 319
250 250 252 253 254 256 257 258 259 260 262 262 263 267 271 274 273 273 275 278 282 287 294 300 305 309 312 316 319 321 322 321 322 321 321 321 323 324 323 323 320 316 321 326 326 325 324 329 328 309 303 304
250 251 252 253 254 255 255 256 258 259 260 260 261 265 268 271 271 271 272 275 279 284 290 296 301 306 309 313 316 319 320 320 322 322 322 323 323 324 323 324 322 316 318 322 323 325 323 318 313 312 306 289
249 251 252 252 252 252 252 252 255 257 257 259 262 264 265 268 270 270 269 271 275 279 285 290 295 299 303 307 310 314 316 317 319 319 320 321 321 322 322 322 318 311 313 316 321 322 317 313 305 307 309 267
249 249 249 250 249 247 245 245 249 252 255 260 264 265 266 269 270 268 267 269 272 276 280 285 289 292 296 300 303 307 310 311 312 313 314 315 317 319 319 318 314 312 312 311 314 314 310 312 295 286 296 290
248 247 247 247 247 247 246 246 249 253 257 261 265 268 268 268 267 266 265 267 270 273 276 280 283 285 288 292 296 301 305 307 307 307 309 311 313 315 316 316 313 313 310 306 309 311 304 296 285 285 292 294
248 246 246 247 248 248 249 249 251 255 257 260 263 265 264 263 264 263 262 265 267 269 272 274 277 279 281 285 289 296 301 303 304 303 303 305 307 309 312 314 311 309 306 301 303 304 300 297 293 292 292 291
Height
1577 1577 1578 1578 1578 1578 1577 1577 1577 1576 1575 1575 1575 1574 1574 1574 1573 1573 1572 1572 1572 1571 1571 1571 1570 1570 1570 1569 1569 1568 1568 1568 1568 1567 1567 1566 1566 1565 1564 1564 1563 1563 1562 1561 1561 1561 1560 1560 1559 1559 1558 1558
1576 1577 1577 1578 1577 1577 1577 1577 1576 1576 1575 1575 1575 1574 1574 1573 1573 1572 1572 1572 1571 1571 1571 1570 1570 1570 1569 1569 1569 1568 1568 1567 1567 1567 1567 1566 1566 1565 1564 1564 1563 1563 1562 1561 1561 1560 1560 1559 1559 1558 1558 1558
1576 1576 1577 1577 1577 1577 1576 1576 1576 1576 1575 1575 1574 1574 1573 1573 1572 1572 1572 1571 1571 1570 1570 1570 1569 1569 1569 1569 1568 1568 1568 1567 1567 1566 1566 1566 1565 1565 1564 1563 1563 1562 1562 1561 1561 1560 1559 1559 1558 1558 1558 1558
1576 1576 1576 1576 1576 1576 1576 1575 1575 1575 1575 1574 1574 1573 1573 1572 1572 1571 1571 1571 1570 1570 1570 1569 1569 1568 1568 1568 1568 1567 1567 1567 1566 1566 1565 1565 1564 1564 1564 1563 1562 1562 1561 1561 1560 1560 1559 1558 1558 1557 1557 1557
1575 1575 1575 1575 1575 1575 1575 1575 1575 1574 1574 1574 1573 1573 1572 1572 1571 1571 1570 1570 1569 1569 1569 1568 1568 1568 1567 1567 1567 1566 1566 1566 1566 1565 1564 1564 1563 1563 1563 1563 1562 1561 1561 1560 1560 1559 1559 1558 1557 1557 1557 1556
1574 1574 1574 1574 1574 1574 1574 1574 1574 1574 1573 1573 1573 1572 1572 1571 1571 1570 1570 1569 1569 1568 1568 1568 1567 1567 1567 1566 1566 1566 1565 1565 1565 1564 1564 1563 1563 1562 1562 1561 1561 1561 1560 1559 1559 1558 1558 1557 1557 1556 1556 1556
1573 1573 1573 1573 1573 1573 1573 1573 1573 1573 1573 1572 1572 1572 1571 1571 1570 1570 1569 1569 1568 1568 1568 1567 1567 1567 1566 1566 1566 1565 1565 1564 1564 1563 1563 1562 1562 1561 1561 1560 1559 1559 1559 1558 1558 1557 1557 1556 1556 1556 1555 1555
1572 1572 1572 1572 1572 1572 1572 1572 1572 1572 1572 1571 1571 1571 1570 1570 1569 1569 1568 1568 1568 1567 1567 1566 1566 1566 1566 1565 1565 1565 1564 1563 1563 1562 1562 1561 1561 1560 1559 1559 1558 1558 1557 1557 1557 1556 1556 1555 1555 1554 1554 1554
1571 1571 1571 1571 1571 1571 1571 1571 1571 1571 1571 1570 1570 1570 1569 1569 1569 1568 1568 1568 1567 1567 1566 1566 1566 1565 1565 1564 1564 1563 1563 1562 1562 1561 1561 1560 1560 1559 1558 1558 1557 1556 1556 1555 1555 1555 1554 1554 1553 1553 1553 1552
1570 1570 1570 1570 1570 1570 1570 1570 1570 1570 1569 1569 1569 1569 1568 1568 1568 1568 1567 1567 1567 1566 1566 1565 1565 1564 1564 1563 1563 1562 1562 1561 1560 1559 1559 1559 1558 1558 1557 1556 1556 1555 1554 1554 1553 1553 1553 1552 1552 1551 1551 1550
1568 1568 1568 1569 1569 1569 1569 1568 1568 1568 1568 1568 1568 1567 1567 1567 1567 1567 1566 1566 1566 1565 1565 1565 1564 1563 1563 1562 1562 1561 1560 1560 1559 1558 1558 1557 1557 1556 1555 1555 1554 1554 1553 1552 1552 1551 1551 1550 1550 1550 1549 1549
1567 1567 1567 1567 1567 1567 1567 1567 1567 1566 1566 1566 1566 1566 1566 1566 1566 1565 1565 1565 1565 1564 1564 1563 1563 1562 1561 1560 1560 1559 1559 1558 1557 1557 1556 1556 1555 1555 1554 1553 1553 1552 1552 1551 1550 1549 1549 1548 1548 1548 1547 1547
1565 1565 1566 1566 1566 1566 1566 1565 1565 1565 1564 1564 1564 1564 1564 1564 1564 1564 1564 1563 1563 1563 1562 1562 1561 1560 1559 1559 1558 1557 1557 1556 1556 1555 1555 1554 1554 1553 1552 1552 1551 1551 1550 1550 1549 1548 1547 1547 1546 1546 1545 1545
1563 1564 1564 1564 1564 1564 1564 1563 1563 1563 1562 1562 1562 1562 1562 1562 1562 1562 1562 1562 1561 1561 1560 1560 1559 1558 1558 1557 1556 1556 1555 1555 1554 1554 1553 1553 1552 1551 1551 1550 1550 1549 1549 1548 1547 1546 1546 1545 1544 1544 1543 1542
1562 1562 1562 1562 1562 1562 1562 1562 1561 1561 1561 1561 1561 1561 1561 1561 1561 1561 1560 1560 1560 1559 1559 1558 1557 1557 1556 1555 1555 1554 1554 1553 1553 1552 1552 1551 1551 1550 1549 1549 1548 1548 1547 1546 1546 1545 1544 1543 1543 1542 1541 1541
1559 1559 1559 1559 1560 1559 1559 1560 1559 1559 1559 1559 1559 1559 1559 1559 1559 1559 1558 1558 1558 1557 1557 1556 1555 1555 1555 1554 1553 1553 1552 1552 1551 1551 1550 1549 1549 1548 1548 1547 1547 1546 1545 1545 1544 1543 1542 1542 1541 1540 1539 1539
1557 1557 1557 1557 1557 1557 1557 1557 1557 1557 1557 1557 1557 1557 1556 1556 1556 1556 1555 1555 1555 1554 1554 1554 1553 1553 1552 1552 1552 1551 1551 1550 1550 1549 1549 1548 1547 1547 1546 1545 1545 1544 1544 1543 1543 1542 1541 1540 1539 1538 1538 1537
1554 1554 1555 1555 1555 1555 1555 1555 1555 1555 1555 1554 1554 1554 1554 1554 1554 1553 1553 1553 1552 1552 1551 1551 1551 1551 1550 1550 1550 1549 1549 1549 1548 1548 1547 1547 1546 1545 1545 1544 1543 1542 1542 1541 1541 1540 1539 1538 1538 1537 1536 1535
1552 1552 1552 1553 1552 1553 1553 1553 1553 1553 1552 1552 1552 1552 1552 1552 1552 1551 1551 1550 1550 1550 1549 1549 1549 1548 1548 1548 1548 1547 1547 1547 1546 1546 1545 1544 1544 1544 1543 1542 1542 1541 1540 1539 1539 1538 1537 1537 1536 1535 1534 1533
1549 1550 1550 1550 1550 1550 1551 1551 1550 1550 1550 1550 1550 1549 1550 1549 1549 1549 1548 1548 1548 1547 1547 1547 1546 1546 1546 1546 1546 1546 1545 1545 1544 1544 1543 1542 1542 1541 1541 1540 1539 1539 1538 1537 1537 1536 1535 1535 1534 1533 1532 1531
1547 1547 1547 1547 1547 1547 1548 1548 1547 1548 1547 1547 1547 1547 1547 1547 1547 1546 1546 1545 1545 1545 1545 1544 1544 1544 1544 1544 1543 1543 1543 1543 1543 1542 1541 1541 1540 1539 1539 1538 1537 1536 1536 1535 1534 1534 1533 1533 1532 1531 1530 1530
1544 1544 1544 1544 1544 1544 1545 1545 1545 1545 1545 1545 1544 1544 1544 1544 1544 1544 1543 1543 1543 1543 1542 1542 1542 1541 1541 1541 1541 1541 1540 1540 1540 1540 1539 1539 1538 1537 1537 1536 1535 1534 1534 1533 1532 1531 1530 1530 1529 1529 1528 1528
1541 1541 1541 1541 1541 1541 1541 1542 1542 1542 1542 1542 1541 1541 1541 1541 1541 1541 1541 1541 1540 1540 1540 1539 1539 1539 1539 1538 1538 1538 1538 1537 1537 1537 1537 1536 1536 1535 1535 1534 1532 1532 1531 1530 1530 1529 1528 1527 1527 1526 1525 1525
1537 1537 1537 1537 1537 1538 1538 1538 1539 1539 1539 1539 1538 1538 1539 1539 1538 1538 1538 1538 1538 1538 1537 1537 1537 1536 1536 1536 1536 1536 1536 1536 1535 1535 1535 1534 1534 1533 1533 1532 1530 1530 1529 1528 1527 1527 1526 1526 1525 1523 1523 1523
1533 1533 1534 1534 1534 1535 1536 1536 1536 1536 1536 1536 1535 1535 1536 1536 1536 1536 1536 1535 1535 1535 1535 1534 1534 1534 1534 1534 1534 1533 1533 1534 1533 1533 1533 1533 1532 1531 1531 1530 1529 1528 1528 1527 1526 1525 1524 1524 1524 1522 1521 1520
1529 1530 1531 1531 1532 1532 1533 1533 1532 1532 1533 1532 1532 1533 1533 1533 1533 1533 1533 1532 1532 1532 1532 1532 1531 1531 1531 1531 1531 1530 1530 1531 1531 1531 1531 1530 1530 1530 1529 1528 1527 1526 1526 1526 1525 1524 1522 1522 1523 1523 1520 1518
1525 1526 1528 1529 1529 1530 1530 1530 1529 1529 1529 1528 1529 1529 1530 1530 1529 1529 1529 1529 1529 1529 1529 1529 1528 1528 1528 1528 1527 1527 1527 1527 1527 1527 1527 1528 1527 1528 1527 1526 1525 1523 1524 1525 1524 1523 1522 1522 1522 1521 1520 1518
1522 1524 1525 1525 1526 1526 1527 1526 1525 1525 1524 1524 1525 1526 1526 1526 1526 1526 1526 1526 1526 1526 1526 1526 1525 1525 1524 1525 1525 1525 1524 1524 1524 1524 1525 1525 1525 1525 1525 1525 1524 1522 1521 1522 1523 1522 1522 1521 1520 1519 1519 1517
1519 1520 1521 1521 1521 1522 1522 1522 1521 1520 1519 1519 1520 1521 1522 1523 1523 1523 1523 1523 1523 1523 1523 1523 1522 1522 1521 1521 1522 1522 1522 1522 1521 1522 1522 1523 1522 1522 1522 1522 1522 1521 1519 1518 1520 1521 1521 1520 1520 1518 1517 1515
1515 1516 1516 1516 1516 1516 1517 1516 1515 1515 1515 1516 1517 1518 1518 1519 1519 1519 1519 1519 1520 1520 1520 1520 1520 1519 1519 1519 1519 1519 1519 1519 1519 1519 1519 1520 1520 1519 1519 1519 1519 1519 1518 1516 1515 1517 1518 1519 1518 1516 1515 1514
1510 1511 1511 1511 1511 1512 1512 1512 1511 1511 1512 1513 1513 1514 1514 1514 1515 1515 1516 1516 1516 1516 1516 1517 1517 1516 1516 1516 1516 1516 1516 1516 1516 1516 1516 1517 1517 1517 1517 1516 1516 1516 1516 1515 1514 1513 1513 1514 1515 1514 1513 1512